Regional Weather Roundup
Issued by NWS

Home | Current Version | Previous Version | Graphics & Text | Print | Product List | Glossary On
Versions: 1 2 3 4 5 6 7 8 9 10 11 12 13 14 15 16 17 18 19 20 21 22 23 24 25 26 27 28 29 30 31 32 33 34 35 36 37 38 39 40 41 42 43 44 45 46 47 48 49 50
000
ASUS45 KSLC 251410
RWRUT

UTAH REGIONAL WEATHER ROUNDUP
NATIONAL WEATHER SERVICE SALT LAKE CITY UT
700 AM MST THU DEC 25 2014

UTZ001>011-023>025-251500-

NORTHERN UTAH

CITY           SKY/WX    TMP DP  RH WIND       PRES   REMARKS
BRIGHAM CITY   CLOUDY    31  24  76 N5        29.55R WCI  26
HILL AFB       CLOUDY    28  23  80 S12       29.55R WCI  18
LOGAN          FLURRIES  28  25  88 SE3       29.53R
OGDEN          CLOUDY    29  25  85 CALM      29.54S
PROVO AIRPORT  CLOUDY    30  25  80 NW12G17   29.57R WCI  21
SALT LAKE CITY FLURRIES  32  22  66 W14G21    29.58S WCI  22
VERNAL         LGT SNOW  24  21  88 CALM      29.50S FOG
WENDOVER       CLOUDY    30  14  51 NW24G38   29.63R WCI  16
HEBER CITY     LGT SNOW  27  25  93 E10       29.48R WCI  17
WEST JORDAN    CLOUDY    28  27  93 CALM      29.58R

$$

UTZ012>022-026-027-251500-

SOUTHERN/CENTRAL UTAH

CITY           SKY/WX    TMP DP  RH WIND       PRES   REMARKS
BLANDING       CLOUDY    30  22  72 CALM      29.64S
BRYCE CANYON   LGT SNOW  23  21  92 S7        29.49S FOG     WCI  15
CEDAR CITY     LGT SNOW  28  26  92 SW8       29.59R FOG     WCI  20
DELTA          CLOUDY    28  26  89 N17G24    29.61R WCI  16
MILFORD        LGT SNOW  28  25  88 NE26G32   29.60R VSB 3/4 WCI  13
MOAB/CYNLANDS  CLOUDY    29  21  72 W7        29.49S WCI  22
PRICE          LGT SNOW  24  21  88 CALM      29.48S FOG
ST GEORGE      CLOUDY    37  28  70 S6        29.68S WCI  33
KANAB          CLOUDY    32  30  93 S14G20    29.64S WCI  22

$$

REGIONAL REPORTS     COLORADO/ARIZONA

CITY           SKY/WX    TMP DP  RH WIND       PRES   REMARKS
CRAIG, CO      LGT SNOW  28  25  88 E7        29.50S VSB 1   WCI  21
GRAND JUNCTION CLOUDY    33  25  72 SE7       29.50F WCI  27
RIFLE          LGT SNOW  24  21  88 CALM      29.55F FOG
MONTROSE       MOCLDY    30  18  60 NE6       29.53F WCI  24
CORTEZ         CLOUDY    36  17  46 SW7       29.58F WCI  30
PAGE, AZ       MOCLDY    36  18  48 S7        29.57F WCI  30
GRAND CANYON   FLURRIES  30  16  56 SW9       29.65R WCI  22
KINGMAN        MOCLDY    44  20  38 SW14      29.69R
FLAGSTAFF      CLOUDY    30  10  43 SW20G26   29.67S WCI  17

$$

REGIONAL REPORTS    NEVADA/IDAHO/WYOMING

CITY           SKY/WX    TMP DP  RH WIND       PRES   REMARKS
LAS VEGAS, NV  PTCLDY    48  18  30 NW14G23   29.71R
ELY            PTCLDY    19  10  68 N15       29.71R WCI   5
ELKO           FLURRIES  24  18  77 W8        29.76F WCI  15
POCATELLO, ID  LGT SNOW  27  27 100 SW20      29.53R VSB 1   WCI  13
EVANSTON, WY   CLOUDY    21  20  96 SW14      29.44R WCI   8
ROCK SPRINGS   LGT SNOW  24  22  91 S7        29.41R FOG     WCI  16
KEMMERER       CLOUDY    23  23 100 W16       29.40R WCI  10

$$


USA.gov is the U.S. government's official web portal to all federal, state and local government web resources and services.